ELY363 LLBG-LOWW

Flight info

Callsign ELY363
Flight time N/A
Altitude 32000
Route SUVAS DCT TEZAK L324 SAFTA DCT MAROS DCT LUTIG DCT EXELA UN127 LMO DCT EVIVI DCT OKANA DCT ESIRI DCT DONIV DCT PARAK DCT BALUX DCT TORNO DCT NATEX NATEX2W
Aircraft B738/M-SDE2E3FGHIJ1LORVWXY/LB1

Departure

Time 2026-05-07 14:26
Airport Ben Gurion International Airport (LLBG)

Arrival

Time N/A
Airport Vienna International Airport (LOWW)
Time Latitude Longitude Altitude Speed Heading
2026-05-07 13:53 32.00420 34.87616 119 ft 0 kts 237°
2026-05-07 14:15 32.00424 34.87623 115 ft 3 kts 233°
2026-05-07 14:16 32.00437 34.87640 116 ft 3 kts 209°
2026-05-07 14:16 32.00456 34.87648 116 ft 3 kts 192°
2026-05-07 14:16 32.00474 34.87654 118 ft 3 kts 204°
2026-05-07 14:16 32.00491 34.87665 117 ft 3 kts 232°
2026-05-07 14:17 32.00496 34.87680 115 ft 3 kts 288°
2026-05-07 14:17 32.00488 34.87694 118 ft 2 kts 338°
2026-05-07 14:17 32.00478 34.87698 115 ft 3 kts 337°
2026-05-07 14:17 32.00465 34.87705 117 ft 1 kts 346°
2026-05-07 14:18 32.00464 34.87705 116 ft 2 kts 346°
2026-05-07 14:20 32.00471 34.87703 116 ft 2 kts 346°
2026-05-07 14:20 32.00492 34.87697 118 ft 5 kts 346°
2026-05-07 14:20 32.00541 34.87683 119 ft 9 kts 347°
2026-05-07 14:21 32.00611 34.87717 117 ft 13 kts 31°
2026-05-07 14:21 32.00607 34.87823 119 ft 17 kts 121°
2026-05-07 14:21 32.00591 34.87917 117 ft 9 kts 55°
2026-05-07 14:21 32.00640 34.87956 118 ft 5 kts 31°
2026-05-07 14:22 32.00677 34.87983 117 ft 9 kts 31°
2026-05-07 14:22 32.00741 34.88029 116 ft 12 kts 31°
2026-05-07 14:22 32.00824 34.88089 116 ft 16 kts 32°
2026-05-07 14:22 32.00928 34.88165 118 ft 19 kts 32°
2026-05-07 14:23 32.01052 34.88255 117 ft 22 kts 31°
2026-05-07 14:23 32.01191 34.88355 120 ft 24 kts 31°
2026-05-07 14:23 32.01323 34.88474 116 ft 26 kts 45°
2026-05-07 14:23 32.01433 34.88649 119 ft 26 kts 62°
2026-05-07 14:24 32.01496 34.88844 119 ft 25 kts 79°
2026-05-07 14:24 32.01526 34.89038 118 ft 23 kts 79°
2026-05-07 14:24 32.01555 34.89153 117 ft 12 kts 41°
2026-05-07 14:24 32.01632 34.89154 117 ft 11 kts 351°
2026-05-07 14:25 32.01708 34.89137 115 ft 11 kts 349°
2026-05-07 14:25 32.01746 34.89105 116 ft 7 kts 284°
2026-05-07 14:25 32.01744 34.89075 118 ft 0 kts 259°
2026-05-07 14:26 32.01717 34.88896 119 ft 56 kts 260°
2026-05-07 14:26 32.01605 34.88169 119 ft 122 kts 260°
2026-05-07 14:26 32.01416 34.86972 238 ft 164 kts 265°
2026-05-07 14:26 32.01230 34.85613 825 ft 176 kts 267°
2026-05-07 14:27 32.00975 34.84143 1410 ft 191 kts 263°
2026-05-07 14:27 32.00685 34.82557 2088 ft 199 kts 263°
2026-05-07 14:27 32.00345 34.80910 2632 ft 217 kts 262°
2026-05-07 14:27 31.99969 34.79103 3010 ft 235 kts 261°
2026-05-07 14:28 31.99570 34.77167 3452 ft 250 kts 258°
2026-05-07 14:28 31.99189 34.75090 3983 ft 265 kts 269°
2026-05-07 14:28 31.99480 34.72960 4866 ft 261 kts 286°
2026-05-07 14:28 31.99974 34.70906 5734 ft 264 kts 285°
2026-05-07 14:29 32.00479 34.68807 6484 ft 269 kts 285°
2026-05-07 14:29 32.00992 34.66661 7184 ft 274 kts 285°
2026-05-07 14:29 32.01502 34.64524 7964 ft 275 kts 285°
2026-05-07 14:29 32.02021 34.62352 8785 ft 276 kts 285°
2026-05-07 14:30 32.02548 34.60146 9476 ft 282 kts 285°
2026-05-07 14:30 32.03076 34.57932 10288 ft 281 kts 285°
2026-05-07 14:30 32.03619 34.55655 10681 ft 298 kts 285°
2026-05-07 14:30 32.04199 34.53212 10853 ft 321 kts 285°
2026-05-07 14:31 32.04819 34.50602 11061 ft 340 kts 285°
2026-05-07 14:31 32.05464 34.47887 11601 ft 346 kts 285°
2026-05-07 14:31 32.06121 34.45122 12172 ft 352 kts 285°
2026-05-07 14:31 32.06787 34.42314 12785 ft 356 kts 285°
2026-05-07 14:32 32.07453 34.39510 13565 ft 356 kts 285°
2026-05-07 14:32 32.08121 34.36689 14183 ft 358 kts 285°
2026-05-07 14:32 32.08785 34.33879 14673 ft 364 kts 285°
2026-05-07 14:32 32.09467 34.30990 15223 ft 367 kts 285°
2026-05-07 14:33 32.10153 34.28084 15814 ft 369 kts 286°
2026-05-07 14:33 32.10843 34.25154 16341 ft 373 kts 286°
2026-05-07 14:33 32.11542 34.22187 16901 ft 375 kts 286°
2026-05-07 14:33 32.12242 34.19209 17453 ft 379 kts 286°
2026-05-07 14:34 32.12949 34.16196 17934 ft 383 kts 287°
2026-05-07 14:34 32.13661 34.13160 18479 ft 385 kts 287°
2026-05-07 14:34 32.14376 34.10108 18967 ft 387 kts 287°
2026-05-07 14:34 32.15094 34.07043 19453 ft 389 kts 287°
2026-05-07 14:35 32.15814 34.03959 19944 ft 391 kts 287°
2026-05-07 14:35 32.16597 34.00883 20414 ft 392 kts 291°
2026-05-07 14:35 32.17726 33.97960 20899 ft 393 kts 300°
2026-05-07 14:35 32.19231 33.95254 21389 ft 394 kts 305°
2026-05-07 14:36 32.20811 33.92649 21832 ft 396 kts 306°
2026-05-07 14:36 32.22432 33.90007 22265 ft 399 kts 306°
2026-05-07 14:36 32.24066 33.87342 22707 ft 401 kts 306°
2026-05-07 14:36 32.25700 33.84664 23143 ft 403 kts 306°
2026-05-07 14:37 32.27338 33.81966 23574 ft 405 kts 306°
2026-05-07 14:37 32.30623 33.76522 24299 ft 409 kts 305°
2026-05-07 14:37 32.32271 33.73779 24654 ft 410 kts 305°
2026-05-07 14:38 32.33925 33.71023 25005 ft 412 kts 305°
2026-05-07 14:38 32.35586 33.68252 25362 ft 413 kts 305°
2026-05-07 14:38 32.36672 33.66438 25585 ft 415 kts 305°
2026-05-07 14:38 32.38342 33.63649 25914 ft 416 kts 305°
2026-05-07 14:39 32.40019 33.60846 26242 ft 418 kts 304°
2026-05-07 14:39 32.41702 33.58031 26563 ft 420 kts 304°
2026-05-07 14:39 32.43393 33.55200 26887 ft 421 kts 304°
2026-05-07 14:39 32.45088 33.52361 27208 ft 423 kts 304°
2026-05-07 14:40 32.46783 33.49519 27613 ft 421 kts 304°
2026-05-07 14:40 32.48448 33.46725 28118 ft 418 kts 304°
2026-05-07 14:40 32.49576 33.44832 28444 ft 416 kts 304°
2026-05-07 14:40 32.50858 33.42680 28797 ft 415 kts 304°
2026-05-07 14:41 32.52519 33.39888 29197 ft 414 kts 304°
2026-05-07 14:41 32.54178 33.37097 29634 ft 413 kts 304°
2026-05-07 14:41 32.55827 33.34321 30064 ft 411 kts 304°
2026-05-07 14:41 32.57476 33.31544 30434 ft 410 kts 304°
2026-05-07 14:42 32.59109 33.28791 30770 ft 410 kts 304°
2026-05-07 14:42 32.60683 33.26137 31052 ft 410 kts 304°
2026-05-07 14:42 32.62318 33.23377 31362 ft 409 kts 304°
2026-05-07 14:42 32.63950 33.20619 31706 ft 408 kts 304°
2026-05-07 14:43 32.65581 33.17862 32024 ft 407 kts 304°
2026-05-07 14:43 32.67199 33.15124 32074 ft 412 kts 304°
2026-05-07 14:43 32.70535 33.09474 32098 ft 420 kts 304°
2026-05-07 14:44 32.73885 33.03790 32103 ft 428 kts 304°
2026-05-07 14:44 32.77217 32.98130 32098 ft 434 kts 305°
2026-05-07 14:45 32.80699 32.92206 32089 ft 433 kts 305°
2026-05-07 14:45 32.83912 32.86732 32093 ft 433 kts 305°
2026-05-07 14:46 32.87159 32.81190 32096 ft 432 kts 305°
2026-05-07 14:46 32.90513 32.75458 32098 ft 431 kts 305°
2026-05-07 14:47 32.93888 32.69680 32098 ft 431 kts 305°
2026-05-07 14:47 32.97297 32.63835 32101 ft 430 kts 305°
2026-05-07 14:48 33.00661 32.58057 32099 ft 430 kts 305°
2026-05-07 14:48 33.04029 32.52266 32100 ft 429 kts 305°
2026-05-07 14:49 33.07442 32.46386 32102 ft 429 kts 305°
2026-05-07 14:49 33.10781 32.40626 32103 ft 428 kts 305°
2026-05-07 14:50 33.14149 32.34805 32104 ft 428 kts 305°
2026-05-07 14:50 33.17536 32.28943 32106 ft 428 kts 306°
2026-05-07 14:51 33.20909 32.23096 32110 ft 427 kts 306°
2026-05-07 14:51 33.23983 32.17760 32111 ft 427 kts 306°
2026-05-07 14:52 33.27214 32.12142 32113 ft 426 kts 306°
2026-05-07 14:52 33.30497 32.06425 32110 ft 426 kts 306°
2026-05-07 14:53 33.33841 32.00593 32114 ft 425 kts 306°
2026-05-07 14:53 33.37149 31.94813 32114 ft 425 kts 306°
2026-05-07 14:54 33.40484 31.88978 32115 ft 425 kts 306°
2026-05-07 14:54 33.43835 31.83144 32112 ft 424 kts 309°
2026-05-07 14:55 33.45859 31.80604 32124 ft 421 kts 320°
2026-05-07 14:55 33.48229 31.78538 32121 ft 421 kts 328°
2026-05-07 14:55 33.53493 31.75888 32134 ft 423 kts 341°
2026-05-07 14:56 33.59162 31.73937 32119 ft 423 kts 342°
2026-05-07 14:56 33.64801 31.71958 32120 ft 423 kts 341°
2026-05-07 14:57 33.69525 31.70255 32117 ft 423 kts 341°
2026-05-07 14:57 33.75185 31.68203 32117 ft 423 kts 341°
2026-05-07 14:58 33.80584 31.65488 32129 ft 421 kts 329°
2026-05-07 14:58 33.85293 31.61342 32122 ft 420 kts 322°
2026-05-07 14:59 33.89874 31.56958 32120 ft 420 kts 322°
2026-05-07 14:59 33.94459 31.52590 32119 ft 420 kts 322°
2026-05-07 15:00 33.99052 31.48233 32119 ft 420 kts 322°
2026-05-07 15:00 34.03642 31.43881 32121 ft 419 kts 322°
2026-05-07 15:01 34.08231 31.39526 32128 ft 419 kts 322°
2026-05-07 15:01 34.12810 31.35173 32125 ft 419 kts 322°
2026-05-07 15:02 34.17390 31.30813 32123 ft 419 kts 322°
2026-05-07 15:02 34.21995 31.26422 32129 ft 419 kts 322°
2026-05-07 15:03 34.26571 31.22054 32125 ft 419 kts 322°
2026-05-07 15:03 34.31133 31.17692 32129 ft 419 kts 322°
2026-05-07 15:04 34.35702 31.13317 32127 ft 419 kts 322°
2026-05-07 15:04 34.40272 31.08935 32128 ft 419 kts 322°
2026-05-07 15:05 34.44832 31.04556 32129 ft 418 kts 322°
2026-05-07 15:05 34.49384 31.00179 32132 ft 418 kts 322°
2026-05-07 15:06 34.53815 30.95910 32129 ft 418 kts 322°
2026-05-07 15:06 34.58367 30.91521 32128 ft 418 kts 322°
2026-05-07 15:07 34.62927 30.87122 32130 ft 418 kts 322°
2026-05-07 15:07 34.67493 30.82759 32133 ft 418 kts 322°
2026-05-07 15:08 34.72075 30.78385 32131 ft 418 kts 322°
2026-05-07 15:08 34.76651 30.74007 32128 ft 418 kts 322°
2026-05-07 15:09 34.81221 30.69623 32128 ft 418 kts 322°
2026-05-07 15:09 34.85790 30.65234 32127 ft 418 kts 322°
2026-05-07 15:10 34.90359 30.60837 32129 ft 419 kts 322°
2026-05-07 15:10 34.94959 30.56404 32132 ft 419 kts 322°
2026-05-07 15:11 34.99499 30.52023 32131 ft 419 kts 321°
2026-05-07 15:11 35.04083 30.47593 32130 ft 419 kts 321°
2026-05-07 15:12 35.08676 30.43148 32129 ft 420 kts 321°
2026-05-07 15:12 35.13226 30.38738 32128 ft 420 kts 321°
2026-05-07 15:13 35.17824 30.34274 32131 ft 420 kts 321°
2026-05-07 15:13 35.22417 30.29809 32128 ft 420 kts 321°
2026-05-07 15:14 35.26928 30.25417 32131 ft 421 kts 321°
2026-05-07 15:14 35.31543 30.20917 32130 ft 421 kts 321°
2026-05-07 15:15 35.36113 30.16454 32128 ft 422 kts 321°
2026-05-07 15:15 35.40701 30.11967 32131 ft 422 kts 321°
2026-05-07 15:16 35.45264 30.07497 32128 ft 422 kts 321°
2026-05-07 15:16 35.49873 30.02976 32131 ft 423 kts 321°
2026-05-07 15:17 35.54453 29.98439 32128 ft 423 kts 320°
2026-05-07 15:17 35.58917 29.93746 32133 ft 423 kts 319°
2026-05-07 15:18 35.63369 29.89007 32131 ft 424 kts 319°
2026-05-07 15:18 35.67877 29.84228 32132 ft 424 kts 319°
2026-05-07 15:19 35.72355 29.79492 32126 ft 424 kts 319°
2026-05-07 15:19 35.76833 29.74752 32126 ft 425 kts 319°
2026-05-07 15:20 35.81278 29.70039 32127 ft 425 kts 319°
2026-05-07 15:20 35.85763 29.65276 32128 ft 425 kts 319°
2026-05-07 15:21 35.90247 29.60506 32128 ft 426 kts 318°
2026-05-07 15:21 35.94737 29.55724 32130 ft 426 kts 318°
2026-05-07 15:22 35.99272 29.51017 32126 ft 426 kts 320°
2026-05-07 15:22 36.03866 29.46390 32130 ft 427 kts 320°
2026-05-07 15:23 36.08463 29.41735 32133 ft 427 kts 319°
2026-05-07 15:23 36.13051 29.37061 32131 ft 427 kts 319°
2026-05-07 15:24 36.17633 29.32385 32137 ft 428 kts 319°
2026-05-07 15:24 36.22216 29.27641 32140 ft 428 kts 319°
2026-05-07 15:25 36.26766 29.22873 32143 ft 429 kts 319°
2026-05-07 15:25 36.31339 29.18090 32142 ft 430 kts 319°
2026-05-07 15:26 36.35897 29.13302 32143 ft 430 kts 319°
2026-05-07 15:26 36.39717 29.09272 32147 ft 431 kts 318°
2026-05-07 15:27 36.42858 29.05952 32147 ft 431 kts 318°
2026-05-07 15:27 36.47430 29.01116 32146 ft 432 kts 318°
2026-05-07 15:28 36.52002 28.96274 32140 ft 432 kts 318°
2026-05-07 15:28 36.56579 28.91420 32138 ft 432 kts 318°
2026-05-07 15:29 36.61155 28.86556 32133 ft 433 kts 318°
2026-05-07 15:29 36.65733 28.81685 32133 ft 433 kts 318°
2026-05-07 15:30 36.70292 28.76829 32130 ft 434 kts 318°
2026-05-07 15:30 36.74891 28.71962 32131 ft 434 kts 318°
2026-05-07 15:31 36.79499 28.67085 32139 ft 434 kts 318°
2026-05-07 15:31 36.84112 28.62191 32142 ft 435 kts 318°
2026-05-07 15:32 36.88719 28.57292 32142 ft 435 kts 318°
2026-05-07 15:32 36.93327 28.52382 32152 ft 435 kts 318°
2026-05-07 15:33 36.97927 28.47473 32147 ft 435 kts 318°
2026-05-07 15:33 37.02527 28.42556 32137 ft 435 kts 318°
2026-05-07 15:34 37.07132 28.37626 32137 ft 435 kts 318°
2026-05-07 15:34 37.11708 28.32660 32135 ft 435 kts 317°
2026-05-07 15:35 37.16240 28.27697 32131 ft 435 kts 317°
2026-05-07 15:35 37.20842 28.22756 32123 ft 435 kts 318°
2026-05-07 15:36 37.25450 28.17823 32132 ft 435 kts 318°
2026-05-07 15:36 37.30052 28.12872 32132 ft 436 kts 317°
2026-05-07 15:37 37.34634 28.07891 32126 ft 436 kts 317°
2026-05-07 15:37 37.39208 28.02881 32135 ft 436 kts 317°
2026-05-07 15:38 37.43775 27.97873 32133 ft 436 kts 317°
2026-05-07 15:38 37.48347 27.92854 32126 ft 436 kts 317°
2026-05-07 15:39 37.52896 27.87854 32115 ft 437 kts 317°
2026-05-07 15:39 37.57477 27.82811 32113 ft 437 kts 317°
2026-05-07 15:40 37.62057 27.77760 32114 ft 437 kts 317°
2026-05-07 15:40 37.66634 27.72704 32116 ft 437 kts 317°
2026-05-07 15:41 37.71213 27.67636 32113 ft 437 kts 317°
2026-05-07 15:41 37.75792 27.62560 32115 ft 438 kts 317°
2026-05-07 15:42 37.80372 27.57474 32123 ft 438 kts 317°